Weather Roundup
Issued by NWS Chicago, IL

Home | Current Version | Previous Version | Text Only | Print | Product List | Glossary On
Versions: 1 2 3 4 5 6 7 8 9 10 11 12 13 14 15 16 17 18 19 20 21 22 23 24 25 26 27 28 29 30 31 32 33 34 35 36 37 38 39 40 41 42 43 44 45 46 47 48 49 50
000
NZUS59 KLOT 032021
HRRLOT

CHICAGO AREA WEATHER ROUNDUP
NATIONAL WEATHER SERVICE CHICAGO/ROMEOVILLE IL
300 PM CDT FRI JUL 03 2015

NOTE: "FAIR" INDICATES FEW OR NO CLOUDS BELOW 12,000 FEET WITH NO
SIGNIFICANT WEATHER AND/OR OBSTRUCTIONS TO VISIBILITY.

* THESE STATIONS ARE NOT UNDER NWS QUALITY CONTROL. THEY ALSO MAY NOT
  REPORT WEATHER SUCH AS PRECIPITATION OR FOG.

ILZ005-006-012>014-019>023-032100-
NORTHEAST ILLINOIS

CITY           SKY/WX    TMP DP  RH WIND       PRES   REMARKS
OHARE          PTSUNNY   76  54  46 NE7       29.94F
MIDWAY         PTSUNNY   76  54  46 E12       29.94F
AURORA         MOSUNNY   77  55  46 CALM      29.95F
LANSING*       MOSUNNY   74  52  44 NE6       29.95F
JOLIET*        MOSUNNY   78  57  48 E3        29.94F
WAUKEGAN       MOSUNNY   71  55  56 E9        29.95F
DUPAGE AIRPORT MOSUNNY   76  55  48 NE6       29.94F
WHEELING       MOSUNNY   75  53  46 VRB6      29.96F
KANKAKEE*      PTSUNNY   76  57  51 N3        29.94F
MORRIS*        MOSUNNY   77  56  47 N3        29.93F
LEWIS AIRPORT* MOSUNNY   77  53  42 SE5       29.94F
NORTHERLY IS     N/A     66  58  75 NE8         N/A
$$

WIZ051-052-058>065-066-070>072-032100-
SOUTHEAST WISCONSIN

CITY           SKY/WX    TMP DP  RH WIND       PRES   REMARKS
MILWAUKEE      PTSUNNY   71  51  49 E10       29.96F
KENOSHA*       MOSUNNY   74  54  49 E10       29.96F
RACINE*        SUNNY     70  55  59 SE8       29.98F
BURLINGTON     MOSUNNY   74  51  45 CALM      29.95F
WAUKESHA       MOSUNNY   72  52  49 SE7       29.96F
WEST BEND      PTSUNNY   73  52  46 S6        29.95F
$$

INZ001>003-010>013-019-020-032100-
NORTHWEST INDIANA

CITY           SKY/WX    TMP DP  RH WIND       PRES   REMARKS
GARY*          PTSUNNY   73  59  60 NE9       29.96F
MICHIGAN CITY* NOT AVBL
RENSSELAER*    NOT AVBL
VALPARAISO     PTSUNNY   75  59  57 N8        29.95F
$$

LMZ740>746-032100-
SOUTHERN LAKE MICHIGAN

STATION/POSITION TIME  SKY/WX   TEMP WIND        PRES    VSBY
                                AIR  DIR/SP/G
                 (UTC)          (F)  (DEG/KT/KT) (MB)    (MI)
HARRISON CRIB    2000            62   40/  7/  8   N/A
BURNHAM HARBOR   2000            66   20/  6/  8   N/A
CALUMET HARBOR   1900            68  360/  5/  7   N/A
BURNS HARBOR     1900            64   10/ 10/ 11 1015.2F
MICHIGAN CITY    2000            63  360/  9/ 11   N/A
$$

ABBREVIATIONS USED IN REMARKS
   TC - TEMPERATURE IN CELSIUS
  WCI - WIND CHILL INDEX
   HX - HEAT INDEX
  VSB - VISIBILITY
$$


USA.gov is the U.S. government's official web portal to all federal, state and local government web resources and services.